Find Starlink 3777

NORAD ID: 52294 Int'l Des: 2022-041 Owner: SPXS Country: US Constellation: starlink operational
LEOCIRCULAR

リアルタイム位置

3D地球を読み込み中...

Starlink 3777について

説明を読み込み中...

次回通過

Passes for default location (London). Set your location on the main map for personalized predictions.

高度履歴

Loading altitude history...

軌道要素

1 52294U 22041AK 26105.77416685 .00000219 00000-0 31860-4 0 9993
2 52294 53.2177 292.6405 0001231 94.7678 265.3455 15.08839518220108
Epoch: Apr 15, 2026 • Age: 17 hours

現在のステータス

高度 556.2 km
速度 7.58 km/s
衛星直下点 -46.11°S, 142.15°E
打ち上げ日 Apr 21, 2022
運用期間 3.9 years
タイプ internet

技術仕様

分類 Payload
質量 297.00 kg
乾燥質量 275.00 kg
総質量 297.00 kg
長さ 0.20 m
直径 2.80 m
スパン 9.00 m
形状 Box + pan
製造者 SPXS
バスタイプ Starlink
フェーズステータス In Orbit
所有者/国 SPXS/US

Most Searched